�������l�o���
Date,Time,MP-1(��Sv/h),MP-2(��Sv/h),MP-3(��Sv/h),MP-4(��Sv/h),MP-5(��Sv/h),MP-6(��Sv/h),MP-7(��Sv/h),MP-8(��Sv/h),����,����(m/s),���J
2021/09/04,00:00,0.572,0.833,0.541,1.011,0.710,0.355,0.606,0.568,�k��,3.2,�L
2021/09/04,00:10,0.571,0.835,0.541,1.012,0.709,0.354,0.603,0.569,�k�k��,2.8,�L
2021/09/04,00:20,0.571,0.832,0.542,1.008,0.706,0.355,0.604,0.569,�k��,3.2,�L
2021/09/04,00:30,0.567,0.830,0.541,1.009,0.707,0.353,0.604,0.569,�k�k��,3.9,�L
2021/09/04,00:40,0.568,0.833,0.542,1.007,0.706,0.355,0.605,0.571,�k��,4.8,�L
2021/09/04,00:50,0.569,0.834,0.541,1.011,0.707,0.353,0.605,0.569,�k��,5.8,�L
2021/09/04,01:00,0.571,0.834,0.541,1.014,0.707,0.353,0.605,0.570,�k��,7.8,�L
2021/09/04,01:10,0.573,0.836,0.542,1.014,0.708,0.353,0.605,0.571,�k�k��,6.2,�L
2021/09/04,01:20,0.573,0.836,0.540,1.018,0.709,0.353,0.607,0.570,�k�k��,6.8,�L
2021/09/04,01:30,0.570,0.833,0.539,1.017,0.705,0.352,0.603,0.568,�k�k��,4.8,�L
2021/09/04,01:40,0.565,0.824,0.538,1.003,0.699,0.351,0.601,0.566,�k�k��,6.9,�L
2021/09/04,01:50,0.565,0.826,0.537,1.001,0.697,0.351,0.598,0.563,�k�k��,7.8,�L
2021/09/04,02:00,0.567,0.827,0.538,1.002,0.700,0.353,0.599,0.565,�k��,9.0,�L
2021/09/04,02:10,0.566,0.827,0.536,1.001,0.697,0.353,0.601,0.565,�k�k��,8.1,�L
2021/09/04,02:20,0.565,0.822,0.535,0.993,0.693,0.353,0.601,0.565,�k��,4.5,�L
2021/09/04,02:30,0.562,0.820,0.533,0.987,0.686,0.351,0.598,0.564,�k�k��,9.7,�L
2021/09/04,02:40,0.565,0.826,0.534,0.993,0.688,0.353,0.598,0.564,�k�k��,8.3,�L
2021/09/04,02:50,0.565,0.825,0.534,0.991,0.683,0.354,0.597,0.565,�k��,8.6,�L
2021/09/04,03:00,0.562,0.820,0.531,0.985,0.679,0.354,0.596,0.564,���k��,5.6,�L
2021/09/04,03:10,0.560,0.820,0.532,0.986,0.681,0.357,0.596,0.565,�k�k��,8.2,�L
2021/09/04,03:20,0.566,0.830,0.534,0.994,0.684,0.358,0.600,0.565,�k,6.7,�L
2021/09/04,03:30,0.568,0.831,0.535,0.999,0.683,0.357,0.601,0.566,�k,5.2,�L
2021/09/04,03:40,0.568,0.828,0.533,0.995,0.676,0.355,0.598,0.563,�k,5.7,�L
2021/09/04,03:50,0.565,0.824,0.534,0.993,0.676,0.356,0.598,0.565,�k,4.4,�L
2021/09/04,04:00,0.565,0.827,0.534,0.996,0.677,0.354,0.598,0.564,�k,6.5,�L
2021/09/04,04:10,0.565,0.828,0.535,0.998,0.678,0.355,0.599,0.566,�k,5.4,�L
2021/09/04,04:20,0.569,0.829,0.533,1.001,0.678,0.357,0.600,0.566,�k,5.4,�L
2021/09/04,04:30,0.567,0.832,0.535,1.003,0.680,0.354,0.601,0.568,�k,5.0,�L
2021/09/04,04:40,0.567,0.833,0.532,1.008,0.680,0.356,0.600,0.568,�k,4.8,�L
2021/09/04,04:50,0.570,0.833,0.534,1.011,0.681,0.354,0.601,0.568,�k,4.1,�L
2021/09/04,05:00,0.567,0.831,0.534,1.011,0.678,0.352,0.600,0.566,�k�k��,3.9,�L
2021/09/04,05:10,0.568,0.832,0.533,1.014,0.682,0.353,0.600,0.568,�k��,3.6,�L
2021/09/04,05:20,0.567,0.832,0.532,1.014,0.682,0.354,0.599,0.566,�k,3.0,�L
2021/09/04,05:30,0.567,0.833,0.535,1.015,0.683,0.351,0.602,0.567,�k��,2.9,�L
2021/09/04,05:40,0.566,0.832,0.532,1.015,0.684,0.352,0.602,0.568,�k�k��,1.7,�L
2021/09/04,05:50,0.565,0.827,0.533,1.013,0.683,0.351,0.600,0.566,�k�k��,3.9,�L
2021/09/04,06:00,0.567,0.828,0.532,1.009,0.680,0.352,0.599,0.566,�k�k��,2.9,�L
2021/09/04,06:10,0.563,0.824,0.533,1.004,0.678,0.352,0.597,0.564,�k�k��,2.5,�L
2021/09/04,06:20,0.563,0.824,0.534,0.998,0.679,0.351,0.596,0.565,���k��,4.1,�L
2021/09/04,06:30,0.568,0.828,0.534,1.001,0.680,0.352,0.599,0.566,�k�k��,3.4,�L
2021/09/04,06:40,0.569,0.834,0.537,1.006,0.684,0.354,0.599,0.566,�k��,4.1,�L
2021/09/04,06:50,0.571,0.834,0.536,1.009,0.682,0.353,0.598,0.568,���k��,3.0,�L
2021/09/04,07:00,0.570,0.833,0.536,1.009,0.684,0.354,0.600,0.567,��,3.1,�L
2021/09/04,07:10,0.569,0.834,0.537,1.008,0.684,0.354,0.601,0.567,���k��,1.2,�L
2021/09/04,07:20,0.570,0.831,0.537,1.012,0.687,0.354,0.602,0.569,�k��,2.8,�L
2021/09/04,07:30,0.571,0.833,0.537,1.012,0.687,0.354,0.601,0.569,�k�k��,2.3,�L
2021/09/04,07:40,0.571,0.836,0.536,1.011,0.688,0.353,0.602,0.570,�k�k��,3.2,�L
2021/09/04,07:50,0.571,0.832,0.536,1.012,0.687,0.354,0.601,0.570,�k�k��,2.6,�L
2021/09/04,08:00,0.571,0.836,0.536,1.014,0.686,0.352,0.602,0.569,�k�k��,2.2,�L
2021/09/04,08:10,0.569,0.835,0.536,1.013,0.687,0.353,0.601,0.568,�k�k��,4.1,�L
2021/09/04,08:20,0.568,0.835,0.532,1.016,0.688,0.352,0.602,0.568,�k,2.8,�L
2021/09/04,08:30,0.565,0.833,0.534,1.016,0.686,0.352,0.602,0.569,�k�k��,3.4,�L
2021/09/04,08:40,0.563,0.826,0.532,1.010,0.685,0.352,0.601,0.567,���k��,3.2,�L
2021/09/04,08:50,0.566,0.824,0.533,1.008,0.685,0.352,0.600,0.567,���k��,1.5,�L
2021/09/04,09:00,0.567,0.829,0.535,1.011,0.684,0.354,0.599,0.567,�k��,2.5,�L
2021/09/04,09:10,0.568,0.829,0.533,1.013,0.688,0.353,0.601,0.568,�k�k��,2.8,�L
2021/09/04,09:20,0.568,0.831,0.534,1.014,0.687,0.352,0.602,0.567,�k,3.3,��
2021/09/04,09:30,0.569,0.831,0.535,1.016,0.689,0.351,0.602,0.566,�k,3.6,��
2021/09/04,09:40,0.570,0.832,0.533,1.016,0.689,0.354,0.602,0.568,�k�k��,2.9,��
2021/09/04,09:50,0.567,0.835,0.535,1.018,0.689,0.352,0.602,0.568,�k,3.1,��
2021/09/04,10:00,0.568,0.834,0.533,1.017,0.691,0.351,0.602,0.569,�k�k��,3.0,��
2021/09/04,10:10,0.567,0.834,0.533,1.019,0.690,0.351,0.604,0.570,�k�k��,3.3,��
2021/09/04,10:20,0.568,0.835,0.533,1.021,0.692,0.351,0.603,0.569,�k�k��,2.8,��
2021/09/04,10:30,0.567,0.837,0.534,1.021,0.694,0.351,0.604,0.570,�k�k��,3.1,��
2021/09/04,10:40,0.568,0.836,0.531,1.019,0.692,0.351,0.605,0.569,�k�k��,3.2,��
2021/09/04,10:50,0.568,0.837,0.532,1.021,0.696,0.351,0.605,0.568,�k�k��,3.1,��
2021/09/04,11:00,0.571,0.836,0.532,1.023,0.692,0.351,0.604,0.569,�k�k��,3.0,�L
2021/09/04,11:10,0.570,0.837,0.533,1.024,0.694,0.353,0.605,0.570,�k�k��,3.0,�L
2021/09/04,11:20,0.569,0.837,0.533,1.023,0.693,0.352,0.604,0.570,�k��,3.3,�L
2021/09/04,11:30,0.569,0.840,0.534,1.024,0.697,0.351,0.604,0.569,�k��,3.4,�L
2021/09/04,11:40,0.571,0.837,0.535,1.025,0.698,0.351,0.604,0.571,�k��,4.2,�L
2021/09/04,11:50,0.569,0.841,0.534,1.026,0.698,0.353,0.606,0.569,�k�k��,5.0,�L
2021/09/04,12:00,0.571,0.841,0.535,1.024,0.698,0.351,0.606,0.572,�k�k��,5.2,�L
2021/09/04,12:10,0.571,0.841,0.536,1.025,0.699,0.353,0.606,0.571,�k�k��,6.2,�L
2021/09/04,12:20,0.570,0.842,0.535,1.027,0.699,0.353,0.606,0.571,�k�k��,7.0,�L
2021/09/04,12:30,0.570,0.841,0.534,1.024,0.700,0.352,0.606,0.570,�k�k��,7.0,��
2021/09/04,12:40,0.571,0.842,0.535,1.027,0.700,0.352,0.607,0.572,�k�k��,6.2,��
2021/09/04,12:50,0.570,0.841,0.535,1.028,0.698,0.351,0.607,0.572,�k��,7.1,��
2021/09/04,13:00,0.571,0.841,0.535,1.029,0.701,0.351,0.608,0.571,�k��,5.8,��
2021/09/04,13:10,0.572,0.842,0.533,1.028,0.700,0.352,0.606,0.571,�k��,6.8,��
2021/09/04,13:20,0.569,0.841,0.536,1.027,0.700,0.352,0.609,0.570,�k��,6.7,��
2021/09/04,13:30,0.572,0.841,0.536,1.029,0.702,0.354,0.608,0.572,�k��,6.2,��
2021/09/04,13:40,0.572,0.842,0.535,1.028,0.702,0.351,0.609,0.572,�k��,6.7,��
2021/09/04,13:50,0.572,0.843,0.536,1.032,0.702,0.352,0.609,0.574,�k��,6.8,��
2021/09/04,14:00,0.571,0.845,0.537,1.030,0.703,0.351,0.610,0.572,�k��,6.3,�L
2021/09/04,14:10,0.573,0.844,0.536,1.033,0.703,0.353,0.609,0.574,�k��,6.3,��
2021/09/04,14:20,0.573,0.842,0.537,1.031,0.704,0.352,0.610,0.571,�k�k��,7.3,��
2021/09/04,14:30,0.574,0.844,0.535,1.031,0.704,0.354,0.608,0.571,�k�k��,6.2,��
2021/09/04,14:40,0.574,0.845,0.538,1.032,0.704,0.352,0.609,0.572,�k�k��,6.4,��
2021/09/04,14:50,0.573,0.846,0.537,1.030,0.706,0.354,0.611,0.572,�k�k��,6.8,��
2021/09/04,15:00,0.574,0.845,0.536,1.032,0.705,0.352,0.607,0.571,�k�k��,6.6,��
2021/09/04,15:10,0.575,0.847,0.538,1.035,0.705,0.352,0.609,0.575,�k�k��,5.6,��
2021/09/04,15:20,0.575,0.847,0.538,1.031,0.706,0.353,0.608,0.573,�k�k��,5.7,��
2021/09/04,15:30,0.575,0.844,0.538,1.033,0.707,0.353,0.610,0.573,�k�k��,5.7,��
2021/09/04,15:40,0.574,0.846,0.538,1.032,0.706,0.354,0.609,0.573,�k�k��,5.0,��
2021/09/04,15:50,0.573,0.848,0.538,1.035,0.707,0.352,0.609,0.573,�k�k��,5.8,��
2021/09/04,16:00,0.573,0.850,0.539,1.032,0.706,0.354,0.610,0.574,�k�k��,6.1,��
2021/09/04,16:10,0.572,0.849,0.539,1.034,0.707,0.353,0.610,0.572,�k�k��,5.9,��
2021/09/04,16:20,0.575,0.849,0.541,1.035,0.707,0.354,0.610,0.573,�k�k��,5.7,��
2021/09/04,16:30,0.576,0.848,0.539,1.033,0.709,0.352,0.609,0.572,�k�k��,5.8,��
2021/09/04,16:40,0.573,0.848,0.540,1.035,0.709,0.352,0.609,0.573,�k�k��,6.2,��
2021/09/04,16:50,0.575,0.848,0.539,1.035,0.709,0.352,0.610,0.575,�k�k��,7.0,��
2021/09/04,17:00,0.574,0.849,0.540,1.035,0.710,0.351,0.609,0.574,�k�k��,6.3,��
2021/09/04,17:10,0.576,0.850,0.541,1.037,0.709,0.353,0.610,0.572,�k�k��,6.5,��
2021/09/04,17:20,0.573,0.851,0.540,1.035,0.710,0.353,0.609,0.573,�k�k��,7.1,��
2021/09/04,17:30,0.574,0.849,0.541,1.034,0.709,0.353,0.610,0.573,�k�k��,7.8,��
2021/09/04,17:40,0.576,0.851,0.541,1.035,0.712,0.354,0.610,0.574,�k�k��,8.9,�L
2021/09/04,17:50,0.575,0.851,0.540,1.037,0.711,0.353,0.611,0.574,�k�k��,8.9,�L
2021/09/04,18:00,0.577,0.852,0.540,1.037,0.712,0.353,0.611,0.573,�k�k��,9.1,�L
2021/09/04,18:10,0.577,0.850,0.540,1.036,0.709,0.354,0.610,0.575,�k�k��,8.8,�L
2021/09/04,18:20,0.575,0.852,0.540,1.037,0.712,0.355,0.610,0.575,�k�k��,9.5,�L
2021/09/04,18:30,0.577,0.852,0.542,1.038,0.712,0.355,0.611,0.575,�k�k��,7.5,�L
2021/09/04,18:40,0.577,0.852,0.542,1.039,0.712,0.354,0.609,0.574,�k�k��,8.2,�L
2021/09/04,18:50,0.576,0.852,0.542,1.040,0.712,0.357,0.611,0.573,�k�k��,7.8,�L
2021/09/04,19:00,0.577,0.853,0.543,1.039,0.712,0.356,0.610,0.575,�k�k��,7.5,�L
2021/09/04,19:10,0.576,0.853,0.542,1.040,0.712,0.355,0.611,0.573,�k�k��,7.4,�L
2021/09/04,19:20,0.577,0.852,0.541,1.037,0.713,0.355,0.611,0.573,�k�k��,6.7,�L
2021/09/04,19:30,0.576,0.853,0.543,1.040,0.714,0.355,0.612,0.573,�k��,7.2,�L
2021/09/04,19:40,0.578,0.854,0.543,1.037,0.714,0.357,0.611,0.573,�k�k��,6.8,�L
2021/09/04,19:50,0.579,0.853,0.544,1.040,0.713,0.359,0.610,0.574,�k�k��,7.5,�L
2021/09/04,20:00,0.578,0.851,0.545,1.039,0.714,0.358,0.610,0.572,�k�k��,7.2,�L
2021/09/04,20:10,0.578,0.851,0.544,1.038,0.712,0.359,0.610,0.572,�k�k��,6.7,�L
2021/09/04,20:20,0.580,0.849,0.543,1.038,0.711,0.358,0.608,0.571,�k,8.3,�L
2021/09/04,20:30,0.577,0.849,0.544,1.038,0.710,0.358,0.609,0.572,�k�k��,9.0,�L
2021/09/04,20:40,0.578,0.850,0.542,1.037,0.710,0.357,0.607,0.571,�k�k��,7.7,�L
2021/09/04,20:50,0.577,0.845,0.542,1.034,0.710,0.357,0.608,0.572,�k�k��,6.8,�L
2021/09/04,21:00,0.575,0.846,0.540,1.034,0.708,0.357,0.606,0.572,�k�k��,6.0,�L
2021/09/04,21:10,0.573,0.841,0.537,1.031,0.706,0.355,0.607,0.570,�k,7.4,�L
2021/09/04,21:20,0.574,0.840,0.538,1.029,0.706,0.357,0.607,0.572,�k,6.5,�L
2021/09/04,21:30,0.571,0.839,0.537,1.030,0.706,0.356,0.606,0.571,�k�k��,7.0,�L
2021/09/04,21:40,0.572,0.841,0.538,1.029,0.705,0.354,0.608,0.571,�k�k��,6.2,�L
2021/09/04,21:50,0.573,0.840,0.537,1.028,0.708,0.353,0.606,0.570,�k�k��,6.9,�L
2021/09/04,22:00,0.572,0.842,0.538,1.030,0.706,0.353,0.606,0.571,�k�k��,6.9,�L
2021/09/04,22:10,0.572,0.841,0.536,1.029,0.707,0.354,0.605,0.570,�k�k��,6.2,�L
2021/09/04,22:20,0.572,0.840,0.536,1.030,0.706,0.354,0.606,0.570,�k�k��,6.7,�L
2021/09/04,22:30,0.571,0.840,0.534,1.028,0.708,0.354,0.606,0.569,�k�k��,6.3,�L
2021/09/04,22:40,0.570,0.841,0.535,1.031,0.709,0.353,0.607,0.570,�k�k��,6.3,�L
2021/09/04,22:50,0.570,0.841,0.537,1.030,0.706,0.352,0.604,0.569,�k�k��,6.9,�L
2021/09/04,23:00,0.572,0.840,0.536,1.028,0.706,0.355,0.605,0.571,�k�k��,8.1,�L
2021/09/04,23:10,0.570,0.841,0.537,1.029,0.706,0.352,0.605,0.569,�k�k��,7.7,�L
2021/09/04,23:20,0.571,0.838,0.534,1.027,0.707,0.353,0.605,0.569,�k�k��,7.0,�L
2021/09/04,23:30,0.569,0.839,0.534,1.029,0.707,0.351,0.606,0.568,�k�k��,7.0,�L
2021/09/04,23:40,0.569,0.839,0.534,1.028,0.706,0.351,0.605,0.571,�k�k��,6.9,�L
2021/09/04,23:50,0.570,0.838,0.534,1.030,0.705,0.352,0.603,0.570,�k�k��,6.6,�L
